Вернуться в каталог

CHINASAT 18

АктивенСвязьHEO
NORAD 44493·PAYLOAD·🇨🇳 China

Запущен Aug 19, 2019 с Xichang Satellite Launch Center

Loading…

Ближайшие Пролёты (ближайшие 24 часа)

TLE

СвежийSource: Space-Track

Эпоха: Sep 13, 2026, 07:00 UTC

1 44493U 19053A   26256.29198545  .00030858  88419-6  32851-3 0  9998
2 44493  28.4608 318.4677 6222103  78.1233 341.3788  3.81061739 73215

Отслеживайте CHINASAT 18 в реальном времени с AllMySat

Download on the App Store